Saint Simons Island, GA

8:38 AM EDT on August 21, 2017 (GMT -0400)
McKinnon

Weather History for KSSI - November, 2012

Change the Weather History Date:

Tuesday, November 13, 2012

  Actual Average Record
Temperature  
Mean Temperature 68 °F 62 °F  
Max Temperature 77 °F 71 °F 81 °F (1972)
Min Temperature 59 °F 54 °F 33 °F (1968)
Degree Days  
Heating Degree Days 0 4  
Month to date heating degree days 56 44  
Since 1 July heating degree days 85 74  
Cooling Degree Days 3 2  
Month to date cooling degree days 21 31  
Year to date cooling degree days 2908 2592  
Growing Degree Days 19 (Base 50)    
Moisture  
Dew Point 61 °F    
Average Humidity 82    
Maximum Humidity 100    
Minimum Humidity 64    
Precipitation  
Precipitation T in 0.07 in 0.56 in (2001)
Month to date precipitation 0.21 0.98  
Year to date precipitation 39.34 41.31  
Snow  
Snow 0.00 in - 0.00 in ()
Month to date snowfall 0.0  
Since 1 July snowfall 0.0  
Since 1 September snowfall 0.0  
Snow Depth 0.00 in    
Sea Level Pressure  
Sea Level Pressure 30.18 in    
Wind  
Wind Speed 5 mph (NNE)    
Max Wind Speed 18 mph    
Max Gust Speed 25 mph    
Visibility 7 miles    
Events Fog , Rain    
T = Trace of Precipitation, MM = Missing Value Source: NWS Daily Summary

Daily Weather History Graph

Daily Weather History Graph

Search for Another Location

Airport or City:

Trip Planner

Search our weather history database for the weather conditions in past years. The results will help you decide how hot, cold, wet, or windy it might be!

Date:

Astronomy

Nov. 13, 2012 Rise Set
Actual Time 6:51 AM EST 5:28 PM EST
Civil Twilight 6:25 AM EST 5:53 PM EST
Nautical Twilight 5:56 AM EST 6:22 PM EST
Astronomical Twilight 5:27 AM EST 6:51 PM EST
Moon 6:27 AM EST (11/13) 5:21 PM EST (11/13)
Length of Visible Light 11h 27m
Length of Day
10h 36m
Waning Crescent, 0% of the Moon is Illuminated
Nov 13
Waning Crescent
Nov 13
New
Nov 20
First Quarter
Nov 28
Full
Dec 6
Last Quarter

Hourly Weather History & Observations

Time (EST) Temp. Dew Point Humidity Pressure Visibility Wind Dir Wind Speed Gust Speed Precip Events Conditions
12:53 AM 63.0 °F 62.1 °F 97% 30.19 in 1.0 mi Calm Calm - N/A   Partly Cloudy
1:04 AM 62.6 °F 60.8 °F 94% 30.19 in 3.0 mi Calm Calm - N/A   Partly Cloudy
1:53 AM 63.0 °F 62.1 °F 97% 30.18 in 7.0 mi Calm Calm - N/A   Clear
2:53 AM 63.0 °F 61.0 °F 93% 30.16 in 8.0 mi Calm Calm - N/A   Clear
3:53 AM 62.6 °F 60.8 °F 94% 30.16 in 2.0 mi Calm Calm - N/A   Partly Cloudy
4:22 AM 62.6 °F 60.8 °F 94% 30.16 in 1.0 mi Calm Calm - N/A   Mostly Cloudy
4:29 AM 62.6 °F 60.8 °F 94% 30.16 in 0.8 mi Calm Calm - N/A   Mostly Cloudy
4:32 AM 62.6 °F 60.8 °F 94% 30.16 in 1.0 mi Calm Calm - N/A   Mostly Cloudy
4:38 AM 62.6 °F 60.8 °F 94% 30.17 in 3.0 mi Calm Calm - N/A   Overcast
4:53 AM 63.0 °F 61.0 °F 93% 30.17 in 9.0 mi Calm Calm - N/A   Overcast
5:53 AM 62.1 °F 61.0 °F 96% 30.18 in 1.5 mi Calm Calm - N/A   Partly Cloudy
6:02 AM 62.6 °F 60.8 °F 94% 30.18 in 3.0 mi Calm Calm - N/A   Partly Cloudy
6:11 AM 62.6 °F 60.8 °F 94% 30.18 in 1.8 mi Calm Calm - N/A   Partly Cloudy
6:19 AM 62.6 °F 60.8 °F 94% 30.18 in 4.0 mi Calm Calm - N/A   Scattered Clouds
6:30 AM 62.6 °F 60.8 °F 94% 30.18 in 2.0 mi Calm Calm - N/A   Scattered Clouds
6:43 AM 62.6 °F 60.8 °F 94% 30.18 in 1.2 mi Calm Calm - N/A   Mostly Cloudy
6:53 AM 62.6 °F 60.8 °F 94% 30.19 in 1.5 mi Calm Calm - N/A   Scattered Clouds
7:09 AM 62.6 °F 60.8 °F 94% 30.19 in 0.5 mi Calm Calm - N/A Fog Fog
7:22 AM 62.6 °F 60.8 °F 94% 30.19 in 0.5 mi Calm Calm - N/A Fog Fog
7:35 AM 62.6 °F 60.8 °F 94% 30.19 in 2.0 mi Calm Calm - N/A   Overcast
7:41 AM 62.6 °F 60.8 °F 94% 30.20 in 0.8 mi Calm Calm - N/A   Overcast
7:51 AM 62.6 °F 60.8 °F 94% 30.20 in 2.0 mi Calm Calm - N/A   Mostly Cloudy
7:53 AM 62.1 °F 61.0 °F 96% 30.20 in 4.0 mi Calm Calm - N/A   Mostly Cloudy
8:07 AM 64.4 °F 62.6 °F 94% 30.20 in 9.0 mi Calm Calm - N/A   Scattered Clouds
8:53 AM 71.1 °F 64.9 °F 81% 30.21 in 10.0 mi WSW 3.5 mph - N/A   Clear
9:53 AM 72.0 °F 64.9 °F 78% 30.22 in 10.0 mi Variable 3.5 mph - N/A   Partly Cloudy
10:53 AM 73.9 °F 64.9 °F 73% 30.21 in 10.0 mi Variable 3.5 mph - N/A   Clear
11:53 AM 75.0 °F 64.9 °F 71% 30.19 in 10.0 mi Calm Calm - N/A   Clear
12:53 PM 75.9 °F 64.9 °F 69% 30.16 in 10.0 mi Variable 4.6 mph - N/A   Clear
1:53 PM 77.0 °F 64.0 °F 64% 30.14 in 10.0 mi NNW 4.6 mph - N/A   Partly Cloudy
2:53 PM 72.0 °F 64.9 °F 78% 30.14 in 10.0 mi ENE 5.8 mph - N/A   Scattered Clouds
3:06 PM 71.6 °F 64.4 °F 78% 30.14 in 10.0 mi ENE 4.6 mph - N/A   Mostly Cloudy
3:36 PM 71.6 °F 64.4 °F 78% 30.14 in 10.0 mi East 5.8 mph - N/A   Overcast
3:43 PM 71.6 °F 64.4 °F 78% 30.14 in 10.0 mi East 6.9 mph - N/A   Overcast
3:53 PM 71.1 °F 64.0 °F 78% 30.14 in 10.0 mi East 6.9 mph - N/A   Overcast
4:53 PM 69.1 °F 64.0 °F 84% 30.16 in 10.0 mi East 3.5 mph - N/A   Overcast
5:48 PM 69.8 °F 62.6 °F 78% 30.16 in 10.0 mi NNW 3.5 mph - N/A   Overcast
5:53 PM 69.1 °F 63.0 °F 81% 30.16 in 10.0 mi NNW 4.6 mph - N/A   Overcast
6:45 PM 68.0 °F 62.6 °F 83% 30.17 in 10.0 mi North 3.5 mph - N/A   Scattered Clouds
6:53 PM 68.0 °F 63.0 °F 84% 30.17 in 10.0 mi North 3.5 mph - N/A   Mostly Cloudy
7:53 PM 66.9 °F 62.1 °F 84% 30.18 in 10.0 mi NNW 3.5 mph - N/A   Partly Cloudy
8:39 PM 64.4 °F 60.8 °F 88% 30.20 in 9.0 mi NE 15.0 mph 21.9 mph N/A   Overcast
8:53 PM 64.0 °F 60.1 °F 87% 30.21 in 9.0 mi NE 12.7 mph - 0.00 in Rain Light Rain
9:04 PM 64.4 °F 60.8 °F 88% 30.21 in 10.0 mi NNE 11.5 mph - 0.00 in   Overcast
9:26 PM 62.6 °F 59.0 °F 88% 30.21 in 9.0 mi NE 12.7 mph - 0.00 in   Overcast
9:38 PM 62.6 °F 57.2 °F 82% 30.21 in 9.0 mi NE 17.3 mph 25.3 mph 0.00 in   Overcast
9:53 PM 63.0 °F 57.9 °F 84% 30.22 in 10.0 mi NE 11.5 mph 20.7 mph 0.00 in   Overcast
9:59 PM 62.6 °F 57.2 °F 82% 30.22 in 10.0 mi NE 12.7 mph 20.7 mph N/A   Overcast
10:09 PM 62.6 °F 57.2 °F 82% 30.22 in 9.0 mi NE 12.7 mph - N/A   Overcast
10:53 PM 61.0 °F 57.0 °F 87% 30.22 in 10.0 mi NNE 13.8 mph - N/A   Overcast
11:53 PM 59.0 °F 55.0 °F 87% 30.23 in 10.0 mi NNE 10.4 mph 23.0 mph N/A   Overcast